TimePDT,TemperatureF,Dew PointF,Humidity,Sea Level PressureIn,VisibilityMPH,Wind Direction,Wind SpeedMPH,Gust SpeedMPH,PrecipitationIn,Events,Conditions,WindDirDegrees,DateUTC
12:56 AM,60.1,54.0,80,30.17,10.0,Calm,Calm,-,N/A,,Clear,0,2012-10-05 07:56:00
2:56 AM,59.0,54.0,83,30.17,10.0,SE,3.5,-,N/A,,Clear,140,2012-10-05 09:56:00
3:23 AM,59.0,53.6,82,30.16,10.0,SSE,3.5,-,N/A,,Mostly Cloudy,150,2012-10-05 10:23:00
3:56 AM,59.0,54.0,83,30.17,10.0,SE,3.5,-,N/A,,Overcast,130,2012-10-05 10:56:00
4:56 AM,60.1,55.0,83,30.17,10.0,Calm,Calm,-,N/A,,Overcast,0,2012-10-05 11:56:00
5:23 AM,60.8,55.4,82,30.16,10.0,Calm,Calm,-,N/A,,Overcast,0,2012-10-05 12:23:00
5:41 AM,60.8,53.6,77,30.16,10.0,WNW,3.5,-,N/A,,Overcast,300,2012-10-05 12:41:00
5:56 AM,59.0,54.0,83,30.17,10.0,NW,4.6,-,N/A,,Overcast,320,2012-10-05 12:56:00
6:56 AM,60.1,54.0,80,30.17,10.0,NW,3.5,-,N/A,,Overcast,320,2012-10-05 13:56:00
7:56 AM,60.1,54.0,80,30.18,9.0,Calm,Calm,-,N/A,,Overcast,0,2012-10-05 14:56:00
8:56 AM,61.0,54.0,78,30.18,8.0,South,3.5,-,N/A,,Scattered Clouds,170,2012-10-05 15:56:00
9:56 AM,64.0,54.0,70,30.18,10.0,SSE,4.6,-,N/A,,Clear,150,2012-10-05 16:56:00
10:56 AM,66.9,54.0,63,30.17,10.0,Calm,Calm,-,N/A,,Clear,0,2012-10-05 17:56:00
11:56 AM,70.0,54.0,57,30.16,10.0,North,4.6,-,N/A,,Clear,10,2012-10-05 18:56:00
12:56 PM,71.1,54.0,55,30.14,10.0,North,13.8,-,N/A,,Clear,350,2012-10-05 19:56:00
1:56 PM,72.0,54.0,53,30.13,10.0,North,15.0,-,N/A,,Mostly Cloudy,350,2012-10-05 20:56:00
2:56 PM,71.1,55.9,59,30.11,10.0,NNW,13.8,-,N/A,,Clear,340,2012-10-05 21:56:00
3:56 PM,72.0,54.0,53,30.10,10.0,NNW,12.7,-,N/A,,Scattered Clouds,330,2012-10-05 22:56:00
5:56 PM,68.0,57.0,68,30.09,10.0,NNW,11.5,-,N/A,,Clear,330,2012-10-06 00:56:00
6:56 PM,66.0,55.9,70,30.09,10.0,NW,6.9,-,N/A,,Clear,310,2012-10-06 01:56:00
7:56 PM,64.9,55.9,73,30.10,10.0,North,6.9,-,N/A,,Partly Cloudy,350,2012-10-06 02:56:00
8:56 PM,63.0,55.9,78,30.10,10.0,Calm,Calm,-,N/A,,Clear,0,2012-10-06 03:56:00
9:56 PM,61.0,55.0,81,30.10,10.0,North,5.8,-,N/A,,Clear,10,2012-10-06 04:56:00
10:56 PM,63.0,55.9,78,30.10,10.0,Calm,Calm,-,N/A,,Clear,0,2012-10-06 05:56:00
11:56 PM,62.1,55.9,80,30.10,10.0,Calm,Calm,-,N/A,,Mostly Cloudy,0,2012-10-06 06:56:00